• In Italy
  • List of Countries
  • For 7 days
  • Water Temperature
  • Satellite Maps
  • Weather Map
  • Weather Widgets
  • user-avatar
    Login

    Hourly Weather Belfast

    Today, 11 December, Monday

    Time Temperature Precipitation Wind Pressure Humidity
    00:00 -2°C° 0 mm 3 mps 738 mmHg 84%
    01:00 -2°C° 0 mm 3 mps 738 mmHg 85%
    02:00 -2°C° 0 mm 2 mps 738 mmHg 86%
    03:00 -1°C° 0 mm 2 mps 738 mmHg 87%
    04:00 -1°C° 0 mm 3 mps 739 mmHg 87%
    05:00 -1°C° 0 mm 3 mps 739 mmHg 87%
    06:00 -1°C° 0 mm 3 mps 739 mmHg 86%
    07:00 -1°C° 0 mm 4 mps 740 mmHg 86%
    08:00 0°C° 0 mm 5 mps 740 mmHg 85%
    09:00 +1°C° 0 mm 5 mps 741 mmHg 84%
    10:00 +1°C° 0 mm 6 mps 742 mmHg 84%
    11:00 +2°C° 0 mm 6 mps 742 mmHg 84%
    12:00 +2°C° 0 mm 6 mps 742 mmHg 83%
    13:00 +2°C° 0.1 mm 6 mps 743 mmHg 83%
    14:00 +2°C° 0.1 mm 6 mps 744 mmHg 83%
    15:00 +2°C° 0.1 mm 6 mps 744 mmHg 83%
    16:00 +2°C° 0 mm 6 mps 745 mmHg 83%
    17:00 +2°C° 0 mm 6 mps 746 mmHg 84%
    18:00 +1°C° 0 mm 6 mps 746 mmHg 84%
    19:00 +1°C° 0 mm 5 mps 747 mmHg 84%
    20:00 +1°C° 0 mm 5 mps 748 mmHg 85%
    21:00 +1°C° 0 mm 5 mps 749 mmHg 85%
    22:00 +1°C° 0 mm 5 mps 749 mmHg 86%
    23:00 +1°C° 0 mm 4 mps 750 mmHg 87%

    Tomorrow, 12 December, Tuesday

    Time Temperature Precipitation Wind Pressure Humidity
    00:00 +1°C° 0 mm 4 mps 750 mmHg 87%
    01:00 0°C° 0 mm 4 mps 751 mmHg 88%
    02:00 +1°C° 0 mm 3 mps 751 mmHg 88%
    03:00 +1°C° 0 mm 3 mps 751 mmHg 89%
    04:00 +1°C° 0 mm 3 mps 751 mmHg 89%
    05:00 +1°C° 0 mm 3 mps 751 mmHg 89%
    06:00 +1°C° 0 mm 3 mps 751 mmHg 90%
    07:00 +1°C° 0 mm 3 mps 752 mmHg 90%
    08:00 0°C° 0 mm 4 mps 752 mmHg 90%
    09:00 0°C° 0 mm 4 mps 752 mmHg 91%
    10:00 +1°C° 0 mm 4 mps 751 mmHg 90%
    11:00 +1°C° 0 mm 5 mps 751 mmHg 89%
    12:00 +2°C° 0 mm 5 mps 751 mmHg 88%
    13:00 +2°C° 0.4 mm 6 mps 750 mmHg 89%
    14:00 +2°C° 0.4 mm 7 mps 749 mmHg 89%
    15:00 +1°C° 0.4 mm 8 mps 749 mmHg 90%
    16:00 +2°C° 0.4 mm 8 mps 748 mmHg 91%
    17:00 +2°C° 0.4 mm 8 mps 748 mmHg 92%
    18:00 +3°C° 0.4 mm 7 mps 748 mmHg 93%
    19:00 +3°C° 0 mm 7 mps 748 mmHg 92%
    20:00 +3°C° 0 mm 6 mps 748 mmHg 90%
    21:00 +3°C° 0 mm 6 mps 748 mmHg 89%
    22:00 +3°C° 0 mm 6 mps 748 mmHg 89%
    23:00 +2°C° 0 mm 6 mps 748 mmHg 90%

    Day after tomorrow, 13 December, Wednesday

    Time Temperature Precipitation Wind Pressure Humidity
    00:00 +2°C° 0 mm 6 mps 748 mmHg 90%
    01:00 +2°C° 0 mm 6 mps 747 mmHg 90%
    02:00 +2°C° 0 mm 6 mps 747 mmHg 91%
    03:00 +2°C° 0 mm 7 mps 746 mmHg 91%
    04:00 +3°C° 0.1 mm 7 mps 745 mmHg 91%
    05:00 +2°C° 0.1 mm 8 mps 744 mmHg 92%
    06:00 +2°C° 0.1 mm 8 mps 744 mmHg 92%
    07:00 +2°C° 0.4 mm 9 mps 743 mmHg 90%
    08:00 +2°C° 0.4 mm 9 mps 742 mmHg 88%
    09:00 +2°C° 0.4 mm 9 mps 742 mmHg 86%
    10:00 +2°C° 0.3 mm 9 mps 742 mmHg 83%
    11:00 +1°C° 0.3 mm 10 mps 742 mmHg 79%
    12:00 +1°C° 0.3 mm 10 mps 742 mmHg 76%
    13:00 +1°C° 0.3 mm 10 mps 741 mmHg 76%
    14:00 0°C° 0.3 mm 10 mps 741 mmHg 76%
    15:00 0°C° 0.3 mm 10 mps 740 mmHg 75%
    16:00 0°C° 0.2 mm 10 mps 741 mmHg 76%
    17:00 -2°C° 0.2 mm 10 mps 741 mmHg 77%
    18:00 -2°C° 0.2 mm 10 mps 741 mmHg 78%
    19:00 -2°C° 0.4 mm 10 mps 741 mmHg 77%
    20:00 -2°C° 0.4 mm 10 mps 741 mmHg 77%
    21:00 -2°C° 0.4 mm 10 mps 741 mmHg 76%
    22:00 -2°C° 0.1 mm 10 mps 741 mmHg 78%
    23:00 0°C° 0.1 mm 10 mps 740 mmHg 79%

    14 December, Thursday

    Time Temperature Precipitation Wind Pressure Humidity
    00:00 0°C° 0.1 mm 9 mps 740 mmHg 80%
    01:00 0°C° 0.1 mm 9 mps 740 mmHg 80%
    02:00 0°C° 0.1 mm 10 mps 740 mmHg 80%
    03:00 0°C° 0.1 mm 10 mps 739 mmHg 79%
    04:00 0°C° 0.1 mm 9 mps 739 mmHg 81%
    05:00 0°C° 0.1 mm 9 mps 739 mmHg 82%
    06:00 -1°C° 0.1 mm 9 mps 738 mmHg 83%
    07:00 -1°C° 0.1 mm 9 mps 738 mmHg 83%
    08:00 -1°C° 0.1 mm 9 mps 738 mmHg 83%
    09:00 0°C° 0.1 mm 9 mps 738 mmHg 83%
    10:00 0°C° 0.1 mm 9 mps 737 mmHg 83%
    11:00 0°C° 0.1 mm 9 mps 737 mmHg 84%
    12:00 +1°C° 0.1 mm 10 mps 736 mmHg 84%
    13:00 +1°C° 0.4 mm 10 mps 735 mmHg 83%
    14:00 +1°C° 0.4 mm 10 mps 735 mmHg 83%
    15:00 +2°C° 0.4 mm 11 mps 734 mmHg 82%
    16:00 +2°C° 0.1 mm 10 mps 735 mmHg 82%
    17:00 +2°C° 0.1 mm 9 mps 735 mmHg 82%
    18:00 +2°C° 0.1 mm 9 mps 735 mmHg 82%
    19:00 +2°C° 0.1 mm 9 mps 737 mmHg 81%
    20:00 +1°C° 0.1 mm 9 mps 738 mmHg 80%
    21:00 +1°C° 0.1 mm 8 mps 739 mmHg 80%
    22:00 +1°C° 0.1 mm 9 mps 740 mmHg 79%
    23:00 +1°C° 0.1 mm 10 mps 741 mmHg 78%

    15 December, Friday

    Time Temperature Precipitation Wind Pressure Humidity
    00:00 +2°C° 0.1 mm 10 mps 742 mmHg 78%
    01:00 +2°C° 0.1 mm 11 mps 743 mmHg 77%
    02:00 +1°C° 0.1 mm 11 mps 743 mmHg 76%
    03:00 +1°C° 0.1 mm 11 mps 744 mmHg 75%
    04:00 +2°C° 0.2 mm 10 mps 745 mmHg 76%
    05:00 +2°C° 0.2 mm 10 mps 746 mmHg 77%
    06:00 +2°C° 0.2 mm 9 mps 747 mmHg 78%
    07:00 +2°C° 0.2 mm 9 mps 748 mmHg 78%
    08:00 +2°C° 0.2 mm 9 mps 749 mmHg 78%
    09:00 +2°C° 0.2 mm 9 mps 750 mmHg 78%
    10:00 +2°C° 0.1 mm 9 mps 751 mmHg 77%
    11:00 +2°C° 0.1 mm 9 mps 752 mmHg 76%
    12:00 +2°C° 0.1 mm 9 mps 752 mmHg 75%
    13:00 +2°C° 0 mm 8 mps 753 mmHg 75%
    14:00 +2°C° 0 mm 8 mps 753 mmHg 75%
    15:00 +3°C° 0 mm 7 mps 754 mmHg 75%
    16:00 +2°C° 0 mm 7 mps 754 mmHg 76%
    17:00 +2°C° 0 mm 7 mps 755 mmHg 78%
    18:00 +2°C° 0 mm 7 mps 756 mmHg 79%
    19:00 0°C° 0.1 mm 7 mps 756 mmHg 79%
    20:00 0°C° 0.1 mm 7 mps 757 mmHg 79%
    21:00 0°C° 0.1 mm 7 mps 757 mmHg 79%
    22:00 +1°C° 0.1 mm 6 mps 758 mmHg 79%
    23:00 +1°C° 0.1 mm 6 mps 758 mmHg 78%

    16 December, Saturday

    Time Temperature Precipitation Wind Pressure Humidity
    00:00 -1°C° 0.1 mm 6 mps 758 mmHg 78%
    01:00 -1°C° 0 mm 6 mps 758 mmHg 80%
    02:00 0°C° 0 mm 5 mps 759 mmHg 81%
    03:00 0°C° 0 mm 5 mps 759 mmHg 83%
    04:00 -1°C° 0 mm 6 mps 759 mmHg 83%
    05:00 -1°C° 0 mm 6 mps 758 mmHg 84%
    06:00 -1°C° 0 mm 7 mps 758 mmHg 84%
    07:00 0°C° 0.1 mm 7 mps 758 mmHg 85%
    08:00 0°C° 0.1 mm 7 mps 758 mmHg 85%
    09:00 +2°C° 0.1 mm 7 mps 759 mmHg 85%
    10:00 +2°C° 0.2 mm 6 mps 759 mmHg 86%
    11:00 +2°C° 0.2 mm 6 mps 759 mmHg 86%
    12:00 +3°C° 0.2 mm 5 mps 759 mmHg 86%
    13:00 +2°C° 0.1 mm 5 mps 759 mmHg 86%
    14:00 +3°C° 0.1 mm 4 mps 759 mmHg 85%
    15:00 +3°C° 0.1 mm 4 mps 759 mmHg 85%
    16:00 +1°C° 0 mm 4 mps 759 mmHg 84%
    17:00 +1°C° 0 mm 4 mps 759 mmHg 83%
    18:00 0°C° 0 mm 4 mps 760 mmHg 82%
    19:00 0°C° 0 mm 4 mps 760 mmHg 82%
    20:00 0°C° 0 mm 4 mps 760 mmHg 82%
    21:00 +1°C° 0 mm 3 mps 761 mmHg 82%
    22:00 0°C° 0 mm 3 mps 761 mmHg 82%
    23:00 0°C° 0 mm 3 mps 761 mmHg 83%
    Show more